When you browse on this site, cookies collect data to enhance your experience and personalize the content and advertising you see.
Visit our Privacy Policy to learn more. By continuing to use the site, you agree to this use of cookies and data.
  • In Deutschland
  • Länderverzeichnis
  • Für 7 Tage
  • Wassertemperatur
  • Satellitenkarten
  • Wetterkarte
  • Widgets
  • user-avatar
    Anmelden

    Stündliche Wetter Zelenkino

    Heute, 18 Januar, Freitag

    Zeit Temperatur Niederschläge Wind Luftdruck Luftfeuchtigkeit
    00:00 -1°C° 0.1 mm 5 m/S 730 mmHg 89%
    01:00 -1°C° 0.1 mm 4 m/S 731 mmHg 89%
    02:00 -1°C° 0 mm 4 m/S 731 mmHg 91%
    03:00 -2°C° 0.2 mm 4 m/S 732 mmHg 91%
    04:00 -2°C° 0.2 mm 3 m/S 732 mmHg 91%
    05:00 -2°C° 0.2 mm 3 m/S 733 mmHg 91%
    06:00 -3°C° 0.1 mm 2 m/S 733 mmHg 92%
    07:00 -4°C° 0.1 mm 2 m/S 733 mmHg 93%
    08:00 -3°C° 0 mm 1 m/S 734 mmHg 94%
    09:00 -3°C° 0.2 mm 1 m/S 734 mmHg 94%
    10:00 -3°C° 0.2 mm 1 m/S 734 mmHg 94%
    11:00 -6°C° 0.2 mm 2 m/S 734 mmHg 93%
    12:00 -6°C° 0.6 mm 2 m/S 734 mmHg 94%
    13:00 -6°C° 0.6 mm 2 m/S 734 mmHg 94%
    14:00 -7°C° 0.6 mm 2 m/S 734 mmHg 94%
    15:00 -7°C° 0.3 mm 2 m/S 735 mmHg 94%
    16:00 -7°C° 0.3 mm 2 m/S 735 mmHg 93%
    17:00 -8°C° 0.3 mm 2 m/S 736 mmHg 92%
    18:00 -8°C° 0 mm 2 m/S 736 mmHg 92%
    19:00 -9°C° 0 mm 2 m/S 737 mmHg 91%
    20:00 -10°C° 0 mm 3 m/S 738 mmHg 91%
    21:00 -12°C° 0 mm 3 m/S 738 mmHg 92%
    22:00 -12°C° 0 mm 3 m/S 738 mmHg 92%
    23:00 -12°C° 0 mm 3 m/S 739 mmHg 93%

    Morgen, 19 Januar, Samstag

    Zeit Temperatur Niederschläge Wind Luftdruck Luftfeuchtigkeit
    00:00 -10°C° 0 mm 3 m/S 739 mmHg 93%
    01:00 -10°C° 0 mm 3 m/S 739 mmHg 93%
    02:00 -10°C° 0 mm 4 m/S 740 mmHg 92%
    03:00 -9°C° 0 mm 4 m/S 740 mmHg 91%
    04:00 -9°C° 0 mm 4 m/S 740 mmHg 90%
    05:00 -8°C° 0 mm 4 m/S 740 mmHg 89%
    06:00 -8°C° 0 mm 4 m/S 741 mmHg 90%
    07:00 -9°C° 0 mm 4 m/S 741 mmHg 90%
    08:00 -9°C° 0 mm 4 m/S 741 mmHg 91%
    09:00 -8°C° 0.1 mm 4 m/S 742 mmHg 90%
    10:00 -8°C° 0.1 mm 4 m/S 742 mmHg 90%
    11:00 -7°C° 0.1 mm 4 m/S 743 mmHg 89%
    12:00 -7°C° 0 mm 4 m/S 743 mmHg 88%
    13:00 -7°C° 0 mm 4 m/S 743 mmHg 88%
    14:00 -5°C° 0 mm 4 m/S 743 mmHg 87%
    15:00 -7°C° 0 mm 4 m/S 744 mmHg 88%
    16:00 -7°C° 0 mm 4 m/S 744 mmHg 89%
    17:00 -6°C° 0 mm 3 m/S 744 mmHg 90%
    18:00 -7°C° 0 mm 3 m/S 744 mmHg 90%
    19:00 -7°C° 0 mm 3 m/S 745 mmHg 91%
    20:00 -9°C° 0 mm 4 m/S 745 mmHg 91%
    21:00 -9°C° 0 mm 4 m/S 745 mmHg 91%
    22:00 -10°C° 0 mm 4 m/S 745 mmHg 92%
    23:00 -10°C° 0 mm 4 m/S 745 mmHg 92%

    übermorgen, 20 Januar, Sonntag

    Zeit Temperatur Niederschläge Wind Luftdruck Luftfeuchtigkeit
    00:00 -10°C° 0 mm 4 m/S 744 mmHg 92%
    01:00 -10°C° 0 mm 5 m/S 744 mmHg 91%
    02:00 -10°C° 0 mm 6 m/S 744 mmHg 90%
    03:00 -9°C° 0.1 mm 6 m/S 743 mmHg 88%
    04:00 -6°C° 0.1 mm 6 m/S 743 mmHg 87%
    05:00 -5°C° 0.1 mm 6 m/S 742 mmHg 85%
    06:00 -6°C° 0.1 mm 7 m/S 742 mmHg 85%
    07:00 -4°C° 0.1 mm 7 m/S 741 mmHg 84%
    08:00 -4°C° 0.1 mm 7 m/S 741 mmHg 84%
    09:00 -5°C° 0.8 mm 6 m/S 741 mmHg 86%
    10:00 -5°C° 0.8 mm 5 m/S 741 mmHg 88%
    11:00 -5°C° 0.8 mm 4 m/S 741 mmHg 90%
    12:00 -5°C° 0.1 mm 4 m/S 741 mmHg 88%
    13:00 -7°C° 0.1 mm 4 m/S 741 mmHg 86%
    14:00 -7°C° 0.1 mm 4 m/S 742 mmHg 83%
    15:00 -7°C° 0 mm 3 m/S 742 mmHg 85%
    16:00 -9°C° 0 mm 3 m/S 742 mmHg 87%
    17:00 -9°C° 0 mm 2 m/S 743 mmHg 89%
    18:00 -10°C° 0 mm 2 m/S 743 mmHg 91%
    19:00 -12°C° 0 mm 2 m/S 743 mmHg 92%
    20:00 -12°C° 0 mm 2 m/S 743 mmHg 94%
    21:00 -13°C° 0 mm 2 m/S 743 mmHg 94%
    22:00 -14°C° 0 mm 2 m/S 744 mmHg 95%
    23:00 -15°C° 0 mm 2 m/S 744 mmHg 95%

    21 Januar, Montag

    Zeit Temperatur Niederschläge Wind Luftdruck Luftfeuchtigkeit
    00:00 -15°C° 0 mm 2 m/S 744 mmHg 95%
    01:00 -14°C° 0 mm 2 m/S 744 mmHg 94%
    02:00 -14°C° 0 mm 2 m/S 744 mmHg 94%
    03:00 -14°C° 0 mm 2 m/S 744 mmHg 94%
    04:00 -14°C° 0 mm 2 m/S 744 mmHg 95%
    05:00 -14°C° 0 mm 2 m/S 744 mmHg 95%
    06:00 -14°C° 0 mm 2 m/S 745 mmHg 95%
    07:00 -15°C° 0 mm 2 m/S 745 mmHg 95%
    08:00 -15°C° 0 mm 2 m/S 745 mmHg 95%
    09:00 -16°C° 0 mm 3 m/S 746 mmHg 95%
    10:00 -15°C° 0 mm 3 m/S 746 mmHg 94%
    11:00 -14°C° 0 mm 3 m/S 746 mmHg 93%
    12:00 -14°C° 0 mm 3 m/S 747 mmHg 92%
    13:00 -13°C° 0 mm 3 m/S 747 mmHg 92%
    14:00 -13°C° 0 mm 3 m/S 747 mmHg 91%
    15:00 -13°C° 0 mm 2 m/S 747 mmHg 92%
    16:00 -14°C° 0 mm 2 m/S 747 mmHg 93%
    17:00 -15°C° 0 mm 2 m/S 747 mmHg 94%
    18:00 -14°C° 0.1 mm 2 m/S 747 mmHg 95%
    19:00 -14°C° 0.1 mm 2 m/S 748 mmHg 95%
    20:00 -11°C° 0.1 mm 1 m/S 748 mmHg 96%
    21:00 -12°C° 0 mm 2 m/S 748 mmHg 96%
    22:00 -12°C° 0 mm 2 m/S 748 mmHg 96%
    23:00 -12°C° 0 mm 2 m/S 748 mmHg 96%

    22 Januar, Dienstag

    Zeit Temperatur Niederschläge Wind Luftdruck Luftfeuchtigkeit
    00:00 -10°C° 0 mm 2 m/S 748 mmHg 96%
    01:00 -10°C° 0 mm 2 m/S 748 mmHg 96%
    02:00 -10°C° 0 mm 2 m/S 748 mmHg 96%
    03:00 -10°C° 0 mm 2 m/S 747 mmHg 96%
    04:00 -12°C° 0 mm 2 m/S 747 mmHg 96%
    05:00 -10°C° 0 mm 1 m/S 747 mmHg 97%
    06:00 -10°C° 0 mm 1 m/S 747 mmHg 97%
    07:00 -10°C° 0 mm 1 m/S 747 mmHg 97%
    08:00 -10°C° 0 mm 1 m/S 747 mmHg 97%
    09:00 -10°C° 0 mm 1 m/S 747 mmHg 96%
    10:00 -9°C° 0 mm 1 m/S 747 mmHg 95%
    11:00 -9°C° 0 mm 1 m/S 747 mmHg 95%
    12:00 -8°C° 0 mm 1 m/S 747 mmHg 94%
    13:00 -8°C° 0 mm 1 m/S 746 mmHg 93%
    14:00 -7°C° 0 mm 1 m/S 746 mmHg 93%
    15:00 -8°C° 0 mm 1 m/S 746 mmHg 94%
    16:00 -8°C° 0 mm 1 m/S 746 mmHg 95%
    17:00 -8°C° 0 mm 1 m/S 746 mmHg 96%
    18:00 -8°C° 0.1 mm 1 m/S 746 mmHg 96%
    19:00 -9°C° 0.1 mm 2 m/S 745 mmHg 96%
    20:00 -9°C° 0.1 mm 2 m/S 745 mmHg 97%
    21:00 -9°C° 0 mm 2 m/S 745 mmHg 96%
    22:00 -9°C° 0 mm 2 m/S 745 mmHg 96%
    23:00 -8°C° 0 mm 2 m/S 745 mmHg 96%

    23 Januar, Mittwoch

    Zeit Temperatur Niederschläge Wind Luftdruck Luftfeuchtigkeit
    00:00 -8°C° 0 mm 2 m/S 745 mmHg 96%
    01:00 -8°C° 0 mm 3 m/S 745 mmHg 95%
    02:00 -8°C° 0 mm 3 m/S 745 mmHg 94%
    03:00 -8°C° 0 mm 3 m/S 744 mmHg 94%
    04:00 -8°C° 0 mm 3 m/S 744 mmHg 94%
    05:00 -8°C° 0 mm 3 m/S 744 mmHg 93%
    06:00 -9°C° 0 mm 4 m/S 744 mmHg 93%
    07:00 -10°C° 0 mm 4 m/S 744 mmHg 93%
    08:00 -10°C° 0 mm 4 m/S 744 mmHg 93%
    09:00 -10°C° 0 mm 4 m/S 744 mmHg 92%
    10:00 -11°C° 0 mm 4 m/S 744 mmHg 91%
    11:00 -11°C° 0 mm 4 m/S 744 mmHg 90%
    12:00 -11°C° 0 mm 4 m/S 744 mmHg 90%
    13:00 -12°C° 0 mm 4 m/S 744 mmHg 90%
    14:00 -14°C° 0 mm 4 m/S 744 mmHg 89%
    15:00 -14°C° 0 mm 4 m/S 744 mmHg 90%
    16:00 -14°C° 0 mm 4 m/S 744 mmHg 91%
    17:00 -15°C° 0 mm 4 m/S 744 mmHg 92%
    18:00 -12°C° 0 mm 3 m/S 744 mmHg 92%
    19:00 -10°C° 0 mm 3 m/S 744 mmHg 92%
    20:00 -9°C° 0 mm 3 m/S 744 mmHg 91%
    21:00 -10°C° 0 mm 3 m/S 744 mmHg 90%
    22:00 -12°C° 0 mm 3 m/S 744 mmHg 90%
    23:00 -14°C° 0 mm 4 m/S 744 mmHg 89%
    Mehr zeigen